TAM3112 SBBR-SBCY

Flight info

Callsign TAM3112
Flight time 1h 17m
Altitude 36000
Route SIREM DCT LODOV DCT MABMA DCT SINIP
Aircraft A321/M-SDE3FGHIRWY/LB1

Departure

Time 2026-05-07 18:57
Airport Presidente Juscelino Kubitschek International Airport (SBBR)

Arrival

Time 2026-05-07 20:15
Airport Várzea Grande–Marechal Rondon International Airport (SBCY)
Time Latitude Longitude Altitude Speed Heading
2026-05-07 18:57 -16.03650 -47.85013 9494 ft 241 kts 168°
2026-05-07 18:57 -16.05340 -47.84861 9582 ft 257 kts 188°
2026-05-07 18:57 -16.06962 -47.85671 9694 ft 271 kts 225°
2026-05-07 18:58 -16.07900 -47.87419 10006 ft 279 kts 259°
2026-05-07 18:58 -16.08100 -47.89406 10583 ft 281 kts 272°
2026-05-07 18:58 -16.08039 -47.91462 11243 ft 282 kts 275°
2026-05-07 18:58 -16.07939 -47.93478 11899 ft 283 kts 275°
2026-05-07 18:59 -16.07884 -47.95531 12551 ft 285 kts 273°
2026-05-07 18:59 -16.07935 -47.97602 13144 ft 291 kts 264°
2026-05-07 18:59 -16.08559 -47.99685 13280 ft 314 kts 244°
2026-05-07 18:59 -16.09624 -48.01757 13415 ft 335 kts 242°
2026-05-07 19:00 -16.10782 -48.03933 13552 ft 353 kts 242°
2026-05-07 19:00 -16.12014 -48.06217 13754 ft 369 kts 241°
2026-05-07 19:00 -16.13277 -48.08563 14240 ft 375 kts 241°
2026-05-07 19:00 -16.14550 -48.10944 14800 ft 378 kts 241°
2026-05-07 19:01 -16.15826 -48.13351 15381 ft 381 kts 241°
2026-05-07 19:01 -16.17092 -48.15756 15941 ft 384 kts 241°
2026-05-07 19:01 -16.18376 -48.18204 16495 ft 387 kts 240°
2026-05-07 19:01 -16.19670 -48.20674 17033 ft 390 kts 240°
2026-05-07 19:02 -16.20980 -48.23171 17557 ft 392 kts 240°
2026-05-07 19:02 -16.22293 -48.25678 18079 ft 395 kts 240°
2026-05-07 19:02 -16.23605 -48.28158 18582 ft 398 kts 238°
2026-05-07 19:02 -16.25230 -48.30512 19050 ft 399 kts 227°
2026-05-07 19:03 -16.27113 -48.32667 19568 ft 402 kts 226°
2026-05-07 19:03 -16.28977 -48.34790 20066 ft 404 kts 226°
2026-05-07 19:03 -16.30883 -48.36959 20565 ft 407 kts 226°
2026-05-07 19:03 -16.32622 -48.39296 21022 ft 412 kts 238°
2026-05-07 19:04 -16.33681 -48.42088 21464 ft 419 kts 256°
2026-05-07 19:04 -16.33974 -48.45118 21876 ft 423 kts 266°
2026-05-07 19:04 -16.34115 -48.48192 22299 ft 427 kts 265°
2026-05-07 19:04 -16.34257 -48.51296 22712 ft 429 kts 265°
2026-05-07 19:05 -16.34401 -48.54414 23109 ft 433 kts 265°
2026-05-07 19:05 -16.34548 -48.57554 23511 ft 435 kts 265°
2026-05-07 19:05 -16.34701 -48.60718 23886 ft 437 kts 265°
2026-05-07 19:05 -16.34854 -48.63854 24253 ft 440 kts 265°
2026-05-07 19:06 -16.35014 -48.67044 24630 ft 442 kts 264°
2026-05-07 19:06 -16.35512 -48.73452 25399 ft 444 kts 262°
2026-05-07 19:06 -16.35833 -48.76656 25779 ft 445 kts 261°
2026-05-07 19:07 -16.36167 -48.79867 26145 ft 447 kts 261°
2026-05-07 19:07 -16.36493 -48.83090 26509 ft 448 kts 262°
2026-05-07 19:07 -16.36806 -48.86338 26879 ft 450 kts 262°
2026-05-07 19:07 -16.37105 -48.89592 27241 ft 452 kts 262°
2026-05-07 19:08 -16.37394 -48.92813 27596 ft 453 kts 262°
2026-05-07 19:08 -16.37684 -48.96092 27943 ft 454 kts 262°
2026-05-07 19:08 -16.37974 -48.99383 28287 ft 456 kts 262°
2026-05-07 19:08 -16.38264 -49.02676 28611 ft 457 kts 262°
2026-05-07 19:09 -16.38558 -49.05987 28930 ft 459 kts 262°
2026-05-07 19:09 -16.38851 -49.09266 29236 ft 460 kts 262°
2026-05-07 19:09 -16.39150 -49.12590 29543 ft 462 kts 262°
2026-05-07 19:09 -16.39450 -49.15929 29850 ft 463 kts 262°
2026-05-07 19:10 -16.39751 -49.19280 30152 ft 464 kts 262°
2026-05-07 19:10 -16.40053 -49.22642 30455 ft 466 kts 262°
2026-05-07 19:10 -16.40354 -49.26013 30759 ft 467 kts 262°
2026-05-07 19:10 -16.40651 -49.29378 31122 ft 467 kts 262°
2026-05-07 19:11 -16.40946 -49.32744 31549 ft 465 kts 262°
2026-05-07 19:11 -16.41240 -49.36087 31973 ft 463 kts 262°
2026-05-07 19:11 -16.41532 -49.39375 32390 ft 461 kts 262°
2026-05-07 19:11 -16.41827 -49.42709 32808 ft 458 kts 262°
2026-05-07 19:12 -16.42116 -49.46007 33206 ft 457 kts 262°
2026-05-07 19:12 -16.42404 -49.49303 33596 ft 455 kts 262°
2026-05-07 19:12 -16.42689 -49.52585 33984 ft 453 kts 262°
2026-05-07 19:12 -16.42974 -49.55845 34372 ft 451 kts 262°
2026-05-07 19:13 -16.43255 -49.59060 34756 ft 449 kts 261°
2026-05-07 19:13 -16.43536 -49.62293 35162 ft 446 kts 261°
2026-05-07 19:13 -16.43816 -49.65516 35556 ft 443 kts 261°
2026-05-07 19:13 -16.44094 -49.68698 35925 ft 441 kts 261°
2026-05-07 19:14 -16.44368 -49.71838 36044 ft 439 kts 261°
2026-05-07 19:14 -16.44642 -49.75003 36062 ft 435 kts 261°
2026-05-07 19:14 -16.45184 -49.81279 36066 ft 433 kts 261°
2026-05-07 19:15 -16.45717 -49.87522 36061 ft 433 kts 261°
2026-05-07 19:15 -16.46249 -49.93732 36060 ft 432 kts 262°
2026-05-07 19:16 -16.46782 -49.99980 36064 ft 433 kts 261°
2026-05-07 19:16 -16.47314 -50.06240 36067 ft 433 kts 262°
2026-05-07 19:17 -16.47846 -50.12503 36065 ft 433 kts 261°
2026-05-07 19:17 -16.48380 -50.18765 36062 ft 433 kts 262°
2026-05-07 19:18 -16.48906 -50.24995 36069 ft 434 kts 262°
2026-05-07 19:18 -16.49425 -50.31261 36072 ft 434 kts 262°
2026-05-07 19:19 -16.49948 -50.37535 36072 ft 434 kts 262°
2026-05-07 19:19 -16.50474 -50.43800 36073 ft 434 kts 262°
2026-05-07 19:20 -16.51000 -50.50075 36069 ft 434 kts 262°
2026-05-07 19:20 -16.51515 -50.56307 36074 ft 434 kts 262°
2026-05-07 19:21 -16.52028 -50.62574 36067 ft 433 kts 262°
2026-05-07 19:21 -16.52539 -50.68830 36062 ft 433 kts 262°
2026-05-07 19:22 -16.53053 -50.75084 36059 ft 432 kts 262°
2026-05-07 19:22 -16.53564 -50.81334 36050 ft 432 kts 262°
2026-05-07 19:23 -16.54008 -50.86793 36044 ft 432 kts 262°
2026-05-07 19:23 -16.54270 -50.90042 36042 ft 432 kts 262°
2026-05-07 19:24 -16.54769 -50.96290 36042 ft 432 kts 262°
2026-05-07 19:24 -16.55273 -51.02528 36036 ft 432 kts 262°
2026-05-07 19:25 -16.55773 -51.08768 36031 ft 432 kts 262°
2026-05-07 19:25 -16.56278 -51.15002 36023 ft 431 kts 262°
2026-05-07 19:26 -16.56780 -51.21232 36013 ft 431 kts 262°
2026-05-07 19:26 -16.57267 -51.27424 36008 ft 431 kts 262°
2026-05-07 19:27 -16.57756 -51.33657 36001 ft 431 kts 262°
2026-05-07 19:27 -16.58242 -51.39891 35997 ft 431 kts 262°
2026-05-07 19:28 -16.58730 -51.46130 35991 ft 432 kts 262°
2026-05-07 19:28 -16.59219 -51.52362 35991 ft 431 kts 262°
2026-05-07 19:29 -16.59702 -51.58593 35981 ft 431 kts 263°
2026-05-07 19:29 -16.60184 -51.64838 35976 ft 432 kts 262°
2026-05-07 19:30 -16.60663 -51.71048 35972 ft 432 kts 262°
2026-05-07 19:30 -16.61154 -51.77301 35969 ft 432 kts 263°
2026-05-07 19:31 -16.61630 -51.83553 35970 ft 432 kts 263°
2026-05-07 19:31 -16.62103 -51.89814 35970 ft 433 kts 263°
2026-05-07 19:32 -16.62579 -51.96071 35967 ft 433 kts 263°
2026-05-07 19:32 -16.63059 -52.02305 35965 ft 433 kts 263°
2026-05-07 19:33 -16.63452 -52.07503 35965 ft 432 kts 263°
2026-05-07 19:33 -16.63916 -52.13748 35960 ft 432 kts 263°
2026-05-07 19:34 -16.64371 -52.19856 35956 ft 431 kts 263°
2026-05-07 19:34 -16.64839 -52.26091 35951 ft 431 kts 263°
2026-05-07 19:35 -16.65304 -52.32329 35950 ft 431 kts 263°
2026-05-07 19:35 -16.65757 -52.38415 35950 ft 431 kts 263°
2026-05-07 19:36 -16.66214 -52.44619 35946 ft 431 kts 263°
2026-05-07 19:36 -16.66665 -52.50851 35939 ft 430 kts 263°
2026-05-07 19:37 -16.67120 -52.57087 35940 ft 431 kts 263°
2026-05-07 19:37 -16.67575 -52.63287 35942 ft 431 kts 263°
2026-05-07 19:38 -16.68025 -52.69528 35944 ft 431 kts 263°
2026-05-07 19:38 -16.68476 -52.75770 35945 ft 431 kts 263°
2026-05-07 19:39 -16.68921 -52.81984 35943 ft 431 kts 263°
2026-05-07 19:39 -16.69361 -52.88218 35939 ft 431 kts 263°
2026-05-07 19:40 -16.69803 -52.94456 35935 ft 431 kts 263°
2026-05-07 19:40 -16.70253 -53.00691 35934 ft 431 kts 263°
2026-05-07 19:41 -16.70695 -53.06884 35937 ft 430 kts 263°
2026-05-07 19:41 -16.70682 -53.13128 35935 ft 432 kts 272°
2026-05-07 19:42 -16.70184 -53.19383 35933 ft 432 kts 272°
2026-05-07 19:42 -16.69691 -53.25645 35931 ft 432 kts 272°
2026-05-07 19:43 -16.69210 -53.31862 35934 ft 432 kts 272°
2026-05-07 19:43 -16.68718 -53.38112 35934 ft 432 kts 272°
2026-05-07 19:44 -16.68220 -53.44368 35933 ft 432 kts 272°
2026-05-07 19:44 -16.67725 -53.50627 35931 ft 432 kts 272°
2026-05-07 19:45 -16.67233 -53.56839 35931 ft 432 kts 272°
2026-05-07 19:45 -16.66733 -53.63101 35929 ft 433 kts 272°
2026-05-07 19:46 -16.66225 -53.69362 35927 ft 433 kts 272°
2026-05-07 19:46 -16.65722 -53.75620 35929 ft 433 kts 272°
2026-05-07 19:47 -16.65219 -53.81887 35930 ft 433 kts 272°
2026-05-07 19:47 -16.64712 -53.88123 35930 ft 433 kts 272°
2026-05-07 19:48 -16.64200 -53.94396 35931 ft 434 kts 272°
2026-05-07 19:48 -16.63685 -54.00664 35932 ft 433 kts 272°
2026-05-07 19:49 -16.63166 -54.06889 35932 ft 433 kts 272°
2026-05-07 19:49 -16.62652 -54.13148 35931 ft 433 kts 272°
2026-05-07 19:50 -16.62143 -54.19415 35931 ft 433 kts 272°
2026-05-07 19:50 -16.61618 -54.25676 35929 ft 433 kts 272°
2026-05-07 19:51 -16.61090 -54.31924 35927 ft 432 kts 272°
2026-05-07 19:51 -16.60575 -54.38131 35928 ft 432 kts 272°
2026-05-07 19:52 -16.60051 -54.44385 35841 ft 433 kts 272°
2026-05-07 19:52 -16.59791 -54.47505 35341 ft 433 kts 272°
2026-05-07 19:52 -16.59527 -54.50645 34608 ft 436 kts 272°
2026-05-07 19:53 -16.59262 -54.53775 33864 ft 439 kts 272°
2026-05-07 19:53 -16.58990 -54.56973 33037 ft 445 kts 273°
2026-05-07 19:53 -16.58718 -54.60161 32381 ft 446 kts 274°
2026-05-07 19:53 -16.58200 -54.63333 31891 ft 445 kts 283°
2026-05-07 19:54 -16.57148 -54.66377 31301 ft 447 kts 293°
2026-05-07 19:54 -16.55720 -54.69211 30743 ft 445 kts 296°
2026-05-07 19:54 -16.54258 -54.72053 30175 ft 442 kts 296°
2026-05-07 19:54 -16.52815 -54.74870 29629 ft 439 kts 296°
2026-05-07 19:55 -16.51379 -54.77674 29049 ft 437 kts 296°
2026-05-07 19:55 -16.49951 -54.80465 28490 ft 434 kts 296°
2026-05-07 19:55 -16.48552 -54.83194 27956 ft 431 kts 296°
2026-05-07 19:55 -16.47137 -54.85952 27410 ft 428 kts 296°
2026-05-07 19:56 -16.45737 -54.88683 26875 ft 425 kts 297°
2026-05-07 19:56 -16.44349 -54.91388 26343 ft 423 kts 297°
2026-05-07 19:56 -16.42965 -54.94079 25833 ft 419 kts 297°
2026-05-07 19:56 -16.41589 -54.96752 25327 ft 416 kts 297°
2026-05-07 19:57 -16.40228 -54.99401 24844 ft 413 kts 297°
2026-05-07 19:57 -16.38890 -55.02004 24376 ft 411 kts 297°
2026-05-07 19:57 -16.37545 -55.04624 23905 ft 408 kts 297°
2026-05-07 19:57 -16.36210 -55.07224 23436 ft 406 kts 297°
2026-05-07 19:58 -16.34882 -55.09812 22974 ft 404 kts 298°
2026-05-07 19:58 -16.33557 -55.12387 22508 ft 402 kts 298°
2026-05-07 19:58 -16.32240 -55.14945 22043 ft 399 kts 298°
2026-05-07 19:58 -16.30935 -55.17480 21570 ft 396 kts 298°
2026-05-07 19:59 -16.29652 -55.19973 21102 ft 394 kts 298°
2026-05-07 19:59 -16.28358 -55.22484 20616 ft 391 kts 298°
2026-05-07 19:59 -16.27076 -55.24967 20133 ft 388 kts 298°
2026-05-07 19:59 -16.25802 -55.27435 19640 ft 385 kts 298°
2026-05-07 20:00 -16.24541 -55.29882 19155 ft 381 kts 298°
2026-05-07 20:00 -16.23291 -55.32305 18663 ft 378 kts 298°
2026-05-07 20:00 -16.22065 -55.34680 18182 ft 375 kts 298°
2026-05-07 20:00 -16.20830 -55.37067 17697 ft 372 kts 298°
2026-05-07 20:01 -16.19603 -55.39438 17208 ft 369 kts 298°
2026-05-07 20:01 -16.18384 -55.41790 16738 ft 366 kts 299°
2026-05-07 20:01 -16.17196 -55.44084 16262 ft 363 kts 299°
2026-05-07 20:01 -16.16005 -55.46389 15785 ft 359 kts 298°
2026-05-07 20:02 -16.14827 -55.48668 15323 ft 356 kts 299°
2026-05-07 20:02 -16.13654 -55.50930 14829 ft 353 kts 299°
2026-05-07 20:02 -16.12494 -55.53164 14365 ft 350 kts 299°
2026-05-07 20:02 -16.11346 -55.55385 13891 ft 347 kts 299°
2026-05-07 20:03 -16.10209 -55.57587 13425 ft 344 kts 299°
2026-05-07 20:03 -16.09108 -55.59716 12958 ft 328 kts 299°
2026-05-07 20:03 -16.08062 -55.61737 12536 ft 308 kts 300°
2026-05-07 20:03 -16.07060 -55.63671 12129 ft 304 kts 300°
2026-05-07 20:04 -16.06055 -55.65612 11706 ft 305 kts 300°
2026-05-07 20:04 -16.05048 -55.67556 11298 ft 304 kts 300°
2026-05-07 20:04 -16.04058 -55.69460 10889 ft 302 kts 300°
2026-05-07 20:04 -16.03062 -55.71375 10491 ft 303 kts 300°
2026-05-07 20:05 -16.02082 -55.73257 10133 ft 299 kts 300°
2026-05-07 20:05 -16.01106 -55.75140 9882 ft 293 kts 300°
2026-05-07 20:05 -16.00145 -55.76994 9727 ft 290 kts 300°
2026-05-07 20:05 -15.99184 -55.78841 9598 ft 290 kts 301°
2026-05-07 20:06 -15.98214 -55.80700 9140 ft 296 kts 301°
2026-05-07 20:06 -15.97240 -55.82572 8789 ft 292 kts 301°
2026-05-07 20:06 -15.96278 -55.84420 8003 ft 289 kts 301°
2026-05-07 20:06 -15.95330 -55.86243 7241 ft 284 kts 301°
2026-05-07 20:07 -15.94396 -55.88029 6583 ft 278 kts 300°
2026-05-07 20:07 -15.93492 -55.89765 5980 ft 269 kts 301°
2026-05-07 20:07 -15.92642 -55.91409 5817 ft 245 kts 300°
2026-05-07 20:07 -15.91867 -55.92918 5752 ft 233 kts 302°
2026-05-07 20:08 -15.91113 -55.94362 5701 ft 230 kts 302°
2026-05-07 20:08 -15.90341 -55.95832 5648 ft 232 kts 302°
2026-05-07 20:08 -15.89568 -55.97315 5554 ft 231 kts 302°
2026-05-07 20:08 -15.88791 -55.98732 5459 ft 217 kts 309°
2026-05-07 20:09 -15.87711 -55.99736 5248 ft 205 kts 333°
2026-05-07 20:09 -15.86449 -56.00414 5001 ft 204 kts 334°
2026-05-07 20:09 -15.85197 -56.01077 4742 ft 197 kts 334°
2026-05-07 20:10 -15.82904 -56.02299 4240 ft 176 kts 335°
2026-05-07 20:10 -15.81841 -56.02866 4005 ft 168 kts 335°
2026-05-07 20:10 -15.80839 -56.03399 3793 ft 156 kts 335°
2026-05-07 20:10 -15.79887 -56.03905 3575 ft 152 kts 334°
2026-05-07 20:11 -15.78946 -56.04404 3389 ft 151 kts 335°
2026-05-07 20:11 -15.78017 -56.04900 3184 ft 150 kts 334°
2026-05-07 20:11 -15.77094 -56.05391 2998 ft 145 kts 334°
2026-05-07 20:11 -15.76203 -56.05865 2795 ft 142 kts 333°
2026-05-07 20:12 -15.75335 -56.06327 2607 ft 141 kts 333°
2026-05-07 20:12 -15.74459 -56.06793 2415 ft 141 kts 333°
2026-05-07 20:12 -15.73587 -56.07257 2232 ft 140 kts 333°
2026-05-07 20:12 -15.72719 -56.07718 2047 ft 139 kts 333°
2026-05-07 20:13 -15.71856 -56.08178 1861 ft 140 kts 332°
2026-05-07 20:13 -15.70984 -56.08642 1683 ft 141 kts 332°
2026-05-07 20:13 -15.70117 -56.09111 1500 ft 141 kts 332°
2026-05-07 20:13 -15.69261 -56.09573 1302 ft 140 kts 333°
2026-05-07 20:14 -15.68389 -56.10025 1135 ft 140 kts 332°
2026-05-07 20:14 -15.67519 -56.10487 925 ft 139 kts 331°
2026-05-07 20:14 -15.66650 -56.10951 737 ft 140 kts 333°
2026-05-07 20:14 -15.65781 -56.11411 611 ft 136 kts 333°
2026-05-07 20:15 -15.65085 -56.11781 598 ft 75 kts 333°
2026-05-07 20:15 -15.64824 -56.11921 596 ft 31 kts 332°
2026-05-07 20:15 -15.64631 -56.12022 595 ft 31 kts 333°
2026-05-07 20:15 -15.64492 -56.12094 596 ft 13 kts 333°
2026-05-07 20:16 -15.64430 -56.12165 597 ft 10 kts 295°
2026-05-07 20:16 -15.64399 -56.12150 596 ft 8 kts 113°
2026-05-07 20:16 -15.64459 -56.12112 596 ft 12 kts 154°
2026-05-07 20:16 -15.64546 -56.12066 595 ft 16 kts 153°
2026-05-07 20:17 -15.64656 -56.12008 596 ft 19 kts 153°
2026-05-07 20:17 -15.64782 -56.11940 596 ft 22 kts 152°
2026-05-07 20:17 -15.64925 -56.11863 596 ft 21 kts 155°
2026-05-07 20:17 -15.65007 -56.11823 597 ft 10 kts 156°
2026-05-07 20:18 -15.65071 -56.11850 598 ft 10 kts 234°
2026-05-07 20:18 -15.65088 -56.11887 597 ft 6 kts 259°
2026-05-07 20:18 -15.65060 -56.11924 597 ft 8 kts 331°
2026-05-07 20:18 -15.65047 -56.11931 597 ft 0 kts 332°
2026-05-07 20:19 -15.65047 -56.11932 597 ft 1 kts 332°
2026-05-07 20:19 -15.65025 -56.11944 597 ft 6 kts 333°
2026-05-07 20:19 -15.65000 -56.11961 597 ft 4 kts 307°
2026-05-07 20:20 -15.64997 -56.11979 597 ft 2 kts 268°
2026-05-07 20:20 -15.65004 -56.11991 597 ft 2 kts 238°
2026-05-07 20:20 -15.65008 -56.11999 597 ft 0 kts 242°